VOE02A LFRB-LFST

Flight info

Callsign VOE02A
Flight time 1h 14m
Altitude 31000
Route SOMEN DCT OTOFE UN491 POGZI DCT GELTA DCT LUVAL/N0458F300 DCT EPL
Aircraft A320/M-SDE3FGHIRWY/LB1

Departure

Time 2026-05-05 19:57
Airport Brest Bretagne airport (LFRB)

Arrival

Time 2026-05-05 21:11
Airport Strasbourg Airport (LFST)
Time Latitude Longitude Altitude Speed Heading
2026-05-05 19:39 48.44346 -4.42223 311 ft 0 kts 156°
2026-05-05 19:49 48.44351 -4.42226 310 ft 2 kts 156°
2026-05-05 19:50 48.44367 -4.42236 309 ft 3 kts 148°
2026-05-05 19:50 48.44380 -4.42255 309 ft 3 kts 111°
2026-05-05 19:50 48.44383 -4.42281 310 ft 3 kts 80°
2026-05-05 19:50 48.44382 -4.42292 310 ft 0 kts 80°
2026-05-05 19:52 48.44383 -4.42282 310 ft 3 kts 75°
2026-05-05 19:52 48.44393 -4.42257 308 ft 5 kts 50°
2026-05-05 19:52 48.44430 -4.42208 309 ft 7 kts 40°
2026-05-05 19:53 48.44460 -4.42171 310 ft 5 kts 39°
2026-05-05 19:53 48.44495 -4.42125 310 ft 9 kts 41°
2026-05-05 19:53 48.44573 -4.42107 310 ft 15 kts 348°
2026-05-05 19:53 48.44681 -4.42172 310 ft 17 kts 311°
2026-05-05 19:54 48.44672 -4.42352 308 ft 20 kts 251°
2026-05-05 19:54 48.44626 -4.42557 307 ft 22 kts 252°
2026-05-05 19:54 48.44576 -4.42779 303 ft 24 kts 251°
2026-05-05 19:54 48.44520 -4.43018 302 ft 25 kts 251°
2026-05-05 19:55 48.44463 -4.43272 302 ft 26 kts 252°
2026-05-05 19:55 48.44404 -4.43536 301 ft 27 kts 251°
2026-05-05 19:55 48.44375 -4.43768 299 ft 15 kts 285°
2026-05-05 19:55 48.44349 -4.43797 297 ft 6 kts 114°
2026-05-05 19:56 48.44358 -4.43742 299 ft 10 kts 68°
2026-05-05 19:56 48.44449 -4.43343 303 ft 75 kts 72°
2026-05-05 19:56 48.44686 -4.42293 311 ft 134 kts 71°
2026-05-05 19:56 48.45031 -4.40753 474 ft 163 kts 69°
2026-05-05 19:57 48.45395 -4.39122 1089 ft 164 kts 62°
2026-05-05 19:57 48.45747 -4.38114 1537 ft 164 kts 55°
2026-05-05 19:57 48.46665 -4.36262 2227 ft 176 kts 49°
2026-05-05 19:57 48.47478 -4.34728 2486 ft 199 kts 49°
2026-05-05 19:58 48.48405 -4.33003 2803 ft 223 kts 49°
2026-05-05 19:58 48.49411 -4.31060 3240 ft 243 kts 51°
2026-05-05 19:58 48.50424 -4.28964 4005 ft 249 kts 52°
2026-05-05 19:58 48.51428 -4.26840 4798 ft 254 kts 52°
2026-05-05 19:59 48.52459 -4.24646 5595 ft 258 kts 52°
2026-05-05 19:59 48.53501 -4.22425 6423 ft 261 kts 52°
2026-05-05 19:59 48.54560 -4.20171 7165 ft 265 kts 52°
2026-05-05 19:59 48.55638 -4.17884 7924 ft 269 kts 52°
2026-05-05 20:00 48.56732 -4.15570 8685 ft 272 kts 51°
2026-05-05 20:00 48.57840 -4.13225 9452 ft 276 kts 51°
2026-05-05 20:00 48.58966 -4.10840 10150 ft 281 kts 52°
2026-05-05 20:00 48.60129 -4.08382 10425 ft 302 kts 52°
2026-05-05 20:01 48.61395 -4.05708 10574 ft 324 kts 52°
2026-05-05 20:01 48.62754 -4.02826 10721 ft 346 kts 52°
2026-05-05 20:01 48.64166 -3.99814 11195 ft 354 kts 53°
2026-05-05 20:01 48.65595 -3.96753 11825 ft 358 kts 53°
2026-05-05 20:02 48.67042 -3.93656 12479 ft 361 kts 53°
2026-05-05 20:02 48.68504 -3.90528 13113 ft 365 kts 54°
2026-05-05 20:02 48.69961 -3.87412 13740 ft 368 kts 54°
2026-05-05 20:02 48.71446 -3.84231 14306 ft 372 kts 54°
2026-05-05 20:03 48.72948 -3.81003 14860 ft 375 kts 54°
2026-05-05 20:03 48.74456 -3.77756 15414 ft 378 kts 54°
2026-05-05 20:03 48.75977 -3.74482 15972 ft 381 kts 54°
2026-05-05 20:03 48.77492 -3.71219 16521 ft 384 kts 54°
2026-05-05 20:04 48.79035 -3.67892 17079 ft 387 kts 54°
2026-05-05 20:04 48.80594 -3.64532 17623 ft 390 kts 54°
2026-05-05 20:04 48.82165 -3.61143 18171 ft 393 kts 54°
2026-05-05 20:04 48.83676 -3.57661 18640 ft 397 kts 60°
2026-05-05 20:05 48.84794 -3.53863 19092 ft 401 kts 70°
2026-05-05 20:05 48.85470 -3.49729 19538 ft 406 kts 80°
2026-05-05 20:05 48.85847 -3.45462 19983 ft 408 kts 81°
2026-05-05 20:05 48.86218 -3.41176 20418 ft 411 kts 81°
2026-05-05 20:06 48.86590 -3.36854 20843 ft 414 kts 81°
2026-05-05 20:06 48.86966 -3.32492 21258 ft 416 kts 81°
2026-05-05 20:06 48.87342 -3.28128 21661 ft 419 kts 81°
2026-05-05 20:06 48.87722 -3.23718 22061 ft 421 kts 81°
2026-05-05 20:07 48.88097 -3.19346 22448 ft 424 kts 81°
2026-05-05 20:07 48.88476 -3.14899 22821 ft 426 kts 81°
2026-05-05 20:07 48.88857 -3.10418 23192 ft 428 kts 81°
2026-05-05 20:07 48.89238 -3.05907 23548 ft 430 kts 81°
2026-05-05 20:08 48.89618 -3.01379 23853 ft 432 kts 81°
2026-05-05 20:08 48.89993 -2.96845 24163 ft 434 kts 81°
2026-05-05 20:08 48.90369 -2.92268 24485 ft 435 kts 81°
2026-05-05 20:08 48.90741 -2.87754 24790 ft 436 kts 82°
2026-05-05 20:09 48.91120 -2.83167 25081 ft 437 kts 82°
2026-05-05 20:09 48.91496 -2.78574 25383 ft 439 kts 82°
2026-05-05 20:09 48.91873 -2.73947 25673 ft 440 kts 82°
2026-05-05 20:09 48.92245 -2.69322 25955 ft 441 kts 82°
2026-05-05 20:10 48.92614 -2.64746 26223 ft 442 kts 82°
2026-05-05 20:10 48.92988 -2.60091 26488 ft 443 kts 82°
2026-05-05 20:10 48.93359 -2.55446 26743 ft 444 kts 82°
2026-05-05 20:10 48.93722 -2.50762 26995 ft 446 kts 84°
2026-05-05 20:11 48.93784 -2.46033 27231 ft 448 kts 92°
2026-05-05 20:11 48.93663 -2.42894 27384 ft 448 kts 92°
2026-05-05 20:11 48.93484 -2.38144 27611 ft 449 kts 92°
2026-05-05 20:11 48.93252 -2.31851 27949 ft 449 kts 92°
2026-05-05 20:12 48.93134 -2.28637 28162 ft 448 kts 92°
2026-05-05 20:12 48.92964 -2.23972 28475 ft 447 kts 92°
2026-05-05 20:12 48.92788 -2.19250 28787 ft 446 kts 92°
2026-05-05 20:12 48.92610 -2.14543 29100 ft 445 kts 93°
2026-05-05 20:13 48.92428 -2.09846 29413 ft 444 kts 93°
2026-05-05 20:13 48.92246 -2.05171 29712 ft 443 kts 93°
2026-05-05 20:13 48.92063 -2.00484 30017 ft 442 kts 93°
2026-05-05 20:13 48.91879 -1.95879 30275 ft 441 kts 93°
2026-05-05 20:14 48.91691 -1.91211 30526 ft 440 kts 93°
2026-05-05 20:14 48.91502 -1.86565 30762 ft 440 kts 93°
2026-05-05 20:14 48.91309 -1.81907 30915 ft 441 kts 94°
2026-05-05 20:15 48.90925 -1.72653 30948 ft 442 kts 93°
2026-05-05 20:15 48.90536 -1.63309 30944 ft 442 kts 94°
2026-05-05 20:16 48.90127 -1.53976 30943 ft 442 kts 94°
2026-05-05 20:16 48.89717 -1.44710 30943 ft 441 kts 94°
2026-05-05 20:17 48.89309 -1.35406 30940 ft 441 kts 94°
2026-05-05 20:17 48.88886 -1.26100 30944 ft 441 kts 94°
2026-05-05 20:18 48.88458 -1.16851 30946 ft 441 kts 94°
2026-05-05 20:18 48.88024 -1.07555 30944 ft 441 kts 94°
2026-05-05 20:19 48.87576 -0.98256 30945 ft 440 kts 94°
2026-05-05 20:19 48.87117 -0.88972 30946 ft 440 kts 94°
2026-05-05 20:20 48.86665 -0.79740 30945 ft 440 kts 94°
2026-05-05 20:20 48.86210 -0.70471 30944 ft 439 kts 94°
2026-05-05 20:21 48.85736 -0.61262 30946 ft 439 kts 94°
2026-05-05 20:21 48.85252 -0.52011 30943 ft 438 kts 94°
2026-05-05 20:22 48.84742 -0.42839 30942 ft 438 kts 95°
2026-05-05 20:22 48.84201 -0.33615 30941 ft 437 kts 95°
2026-05-05 20:23 48.83663 -0.24405 30935 ft 437 kts 95°
2026-05-05 20:23 48.83126 -0.15249 30934 ft 437 kts 95°
2026-05-05 20:24 48.82575 -0.06059 30929 ft 436 kts 95°
2026-05-05 20:24 48.82012 0.03048 30925 ft 436 kts 95°
2026-05-05 20:25 48.81441 0.12199 30922 ft 435 kts 95°
2026-05-05 20:25 48.80871 0.21356 30915 ft 435 kts 95°
2026-05-05 20:26 48.80296 0.30446 30911 ft 434 kts 95°
2026-05-05 20:26 48.79715 0.39573 30906 ft 434 kts 95°
2026-05-05 20:27 48.79124 0.48635 30901 ft 434 kts 95°
2026-05-05 20:27 48.78523 0.57745 30891 ft 433 kts 95°
2026-05-05 20:28 48.77918 0.66862 30888 ft 433 kts 95°
2026-05-05 20:28 48.77309 0.75948 30880 ft 433 kts 95°
2026-05-05 20:29 48.76695 0.84985 30875 ft 433 kts 95°
2026-05-05 20:29 48.76069 0.94094 30871 ft 433 kts 95°
2026-05-05 20:30 48.75433 1.03189 30871 ft 433 kts 96°
2026-05-05 20:30 48.74797 1.12228 30869 ft 433 kts 96°
2026-05-05 20:31 48.74204 1.20494 30864 ft 434 kts 96°
2026-05-05 20:31 48.73546 1.29583 30862 ft 434 kts 96°
2026-05-05 20:32 48.72889 1.38663 30853 ft 434 kts 96°
2026-05-05 20:32 48.72225 1.47703 30850 ft 434 kts 96°
2026-05-05 20:33 48.71546 1.56797 30845 ft 434 kts 96°
2026-05-05 20:33 48.70863 1.65880 30843 ft 434 kts 96°
2026-05-05 20:34 48.70181 1.74910 30844 ft 434 kts 96°
2026-05-05 20:34 48.69484 1.84010 30846 ft 435 kts 96°
2026-05-05 20:35 48.68778 1.93098 30850 ft 435 kts 96°
2026-05-05 20:35 48.68060 2.02199 30853 ft 435 kts 96°
2026-05-05 20:36 48.67347 2.11193 30850 ft 435 kts 97°
2026-05-05 20:36 48.66630 2.20070 30850 ft 435 kts 97°
2026-05-05 20:37 48.65886 2.29172 30850 ft 436 kts 97°
2026-05-05 20:37 48.65139 2.38299 30851 ft 436 kts 97°
2026-05-05 20:38 48.64396 2.47348 30846 ft 437 kts 97°
2026-05-05 20:38 48.63636 2.56469 30820 ft 437 kts 97°
2026-05-05 20:39 48.62875 2.65599 30821 ft 437 kts 97°
2026-05-05 20:39 48.62100 2.74745 30817 ft 438 kts 97°
2026-05-05 20:40 48.61317 2.83841 30817 ft 439 kts 97°
2026-05-05 20:40 48.60524 2.93001 30812 ft 439 kts 98°
2026-05-05 20:41 48.59725 3.02157 30808 ft 440 kts 98°
2026-05-05 20:41 48.58917 3.11278 30803 ft 440 kts 98°
2026-05-05 20:42 48.58098 3.20463 30797 ft 441 kts 98°
2026-05-05 20:42 48.57271 3.29665 30800 ft 442 kts 98°
2026-05-05 20:43 48.56439 3.38870 30797 ft 442 kts 98°
2026-05-05 20:43 48.55891 3.48135 30795 ft 443 kts 94°
2026-05-05 20:44 48.55598 3.57389 30796 ft 444 kts 93°
2026-05-05 20:44 48.55291 3.66698 30798 ft 444 kts 94°
2026-05-05 20:45 48.54682 3.80665 30800 ft 444 kts 95°
2026-05-05 20:45 48.54254 3.89972 30804 ft 445 kts 95°
2026-05-05 20:46 48.53838 3.99242 30809 ft 445 kts 95°
2026-05-05 20:46 48.53412 4.08536 30810 ft 445 kts 95°
2026-05-05 20:47 48.52982 4.17838 30814 ft 445 kts 95°
2026-05-05 20:47 48.52535 4.27173 30811 ft 445 kts 96°
2026-05-05 20:48 48.52084 4.36506 30811 ft 445 kts 96°
2026-05-05 20:48 48.51629 4.45770 30808 ft 445 kts 96°
2026-05-05 20:49 48.51155 4.55117 30809 ft 446 kts 96°
2026-05-05 20:49 48.50677 4.64396 30811 ft 446 kts 96°
2026-05-05 20:50 48.50280 4.72150 30814 ft 446 kts 96°
2026-05-05 20:50 48.49713 4.83073 30812 ft 446 kts 96°
2026-05-05 20:51 48.49224 4.92350 30813 ft 446 kts 96°
2026-05-05 20:51 48.48719 5.01696 30810 ft 447 kts 97°
2026-05-05 20:52 48.48205 5.11044 30812 ft 447 kts 97°
2026-05-05 20:52 48.47683 5.20337 30814 ft 447 kts 97°
2026-05-05 20:53 48.47151 5.29680 30813 ft 447 kts 97°
2026-05-05 20:53 48.46612 5.39012 30815 ft 447 kts 97°
2026-05-05 20:54 48.46075 5.48362 30663 ft 448 kts 97°
2026-05-05 20:54 48.45809 5.52986 30257 ft 448 kts 97°
2026-05-05 20:54 48.45533 5.57702 29025 ft 453 kts 97°
2026-05-05 20:55 48.45248 5.62439 27987 ft 453 kts 97°
2026-05-05 20:55 48.44958 5.67185 26905 ft 455 kts 97°
2026-05-05 20:55 48.44664 5.71949 25740 ft 458 kts 97°
2026-05-05 20:55 48.44374 5.76668 24906 ft 455 kts 97°
2026-05-05 20:56 48.44088 5.81385 24177 ft 450 kts 97°
2026-05-05 20:56 48.43802 5.86060 23412 ft 447 kts 97°
2026-05-05 20:56 48.43514 5.90711 22587 ft 443 kts 97°
2026-05-05 20:56 48.43227 5.95301 21911 ft 438 kts 97°
2026-05-05 20:57 48.42940 5.99848 21233 ft 434 kts 97°
2026-05-05 20:57 48.42653 6.04371 20559 ft 430 kts 97°
2026-05-05 20:57 48.42372 6.08786 19907 ft 427 kts 97°
2026-05-05 20:57 48.42085 6.13236 19265 ft 425 kts 97°
2026-05-05 20:58 48.41799 6.17652 18645 ft 422 kts 97°
2026-05-05 20:58 48.41513 6.22043 18012 ft 420 kts 97°
2026-05-05 20:58 48.41228 6.26414 17401 ft 416 kts 97°
2026-05-05 20:58 48.40949 6.30692 16838 ft 412 kts 97°
2026-05-05 20:59 48.40668 6.34972 16304 ft 408 kts 97°
2026-05-05 20:59 48.40386 6.39217 15770 ft 405 kts 97°
2026-05-05 20:59 48.40106 6.43420 15252 ft 401 kts 97°
2026-05-05 20:59 48.39828 6.47572 14735 ft 398 kts 97°
2026-05-05 21:00 48.39550 6.51702 14218 ft 395 kts 97°
2026-05-05 21:00 48.39271 6.55792 13797 ft 390 kts 98°
2026-05-05 21:00 48.38996 6.59789 13254 ft 387 kts 98°
2026-05-05 21:00 48.38721 6.63802 12681 ft 384 kts 98°
2026-05-05 21:01 48.38444 6.67794 12100 ft 381 kts 98°
2026-05-05 21:01 48.38260 6.70420 11708 ft 380 kts 98°
2026-05-05 21:01 48.37982 6.74380 11142 ft 378 kts 98°
2026-05-05 21:01 48.37712 6.78243 10988 ft 364 kts 98°
2026-05-05 21:02 48.37374 6.83134 10823 ft 345 kts 98°
2026-05-05 21:02 48.37208 6.85534 10741 ft 337 kts 98°
2026-05-05 21:02 48.36966 6.88977 10618 ft 325 kts 98°
2026-05-05 21:02 48.36731 6.92267 10493 ft 315 kts 99°
2026-05-05 21:03 48.36496 6.95511 10262 ft 309 kts 99°
2026-05-05 21:03 48.36266 6.98699 10190 ft 305 kts 99°
2026-05-05 21:03 48.36037 7.01872 10097 ft 305 kts 99°
2026-05-05 21:03 48.35808 7.05014 9937 ft 305 kts 99°
2026-05-05 21:04 48.35571 7.08221 9221 ft 307 kts 99°
2026-05-05 21:04 48.35339 7.11399 8583 ft 303 kts 98°
2026-05-05 21:04 48.35112 7.14540 7910 ft 301 kts 98°
2026-05-05 21:04 48.34884 7.17654 7335 ft 296 kts 98°
2026-05-05 21:05 48.34666 7.20650 7156 ft 280 kts 98°
2026-05-05 21:05 48.34460 7.23470 7027 ft 268 kts 99°
2026-05-05 21:05 48.34270 7.26218 6906 ft 262 kts 93°
2026-05-05 21:05 48.34512 7.28932 6789 ft 263 kts 71°
2026-05-05 21:06 48.35367 7.31376 6440 ft 267 kts 49°
2026-05-05 21:06 48.36589 7.33440 6055 ft 260 kts 46°
2026-05-05 21:06 48.37782 7.35445 5696 ft 253 kts 47°
2026-05-05 21:06 48.38923 7.37375 5348 ft 241 kts 46°
2026-05-05 21:07 48.40021 7.39242 4976 ft 235 kts 46°
2026-05-05 21:07 48.41099 7.41078 4608 ft 230 kts 46°
2026-05-05 21:07 48.42141 7.42853 4292 ft 228 kts 47°
2026-05-05 21:07 48.43183 7.44627 3898 ft 224 kts 47°
2026-05-05 21:08 48.44213 7.46379 3560 ft 222 kts 47°
2026-05-05 21:08 48.45230 7.48109 3219 ft 219 kts 47°
2026-05-05 21:08 48.46235 7.49821 2875 ft 216 kts 47°
2026-05-05 21:08 48.47205 7.51479 2547 ft 205 kts 49°
2026-05-05 21:09 48.48112 7.53031 2238 ft 193 kts 48°
2026-05-05 21:09 48.48953 7.54463 2007 ft 175 kts 48°
2026-05-05 21:09 48.49748 7.55810 1659 ft 167 kts 48°
2026-05-05 21:09 48.50491 7.57099 1431 ft 160 kts 50°
2026-05-05 21:10 48.51212 7.58342 1178 ft 154 kts 50°
2026-05-05 21:10 48.51925 7.59551 963 ft 153 kts 50°
2026-05-05 21:10 48.52605 7.60722 718 ft 148 kts 49°
2026-05-05 21:10 48.53282 7.61890 519 ft 145 kts 49°
2026-05-05 21:11 48.53880 7.62907 501 ft 106 kts 48°
2026-05-05 21:11 48.54129 7.63332 504 ft 28 kts 49°
2026-05-05 21:11 48.54235 7.63362 503 ft 15 kts 319°
2026-05-05 21:11 48.54278 7.63308 505 ft 3 kts 315°
2026-05-05 21:12 48.54286 7.63292 505 ft 0 kts 302°
2026-05-05 21:12 48.54288 7.63283 505 ft 0 kts 292°
2026-05-05 21:12 48.54292 7.63268 505 ft 4 kts 291°
2026-05-05 21:12 48.54307 7.63211 506 ft 8 kts 291°
2026-05-05 21:13 48.54348 7.63112 506 ft 14 kts 327°
2026-05-05 21:13 48.54383 7.62996 506 ft 12 kts 253°
2026-05-05 21:13 48.54340 7.62913 507 ft 10 kts 228°
2026-05-05 21:13 48.54329 7.62889 507 ft 0 kts 257°
2026-05-05 21:14 48.54332 7.62885 507 ft 2 kts 293°
2026-05-05 21:14 48.54342 7.62876 507 ft 5 kts 326°
2026-05-05 21:14 48.54388 7.62829 507 ft 6 kts 321°
2026-05-05 21:14 48.54402 7.62813 507 ft 0 kts 320°